Tracking 32139 objects as of 16-Nov-2025
HD Live streaming from Space Station
objects crossing your sky now

STARLINK-35316

Track STARLINK-35316 now!
10-day predictions
STARLINK-35316 is classified as:


NORAD ID: 65742
Int'l Code: 2025-216J
Perigee: 453.3 km
Apogee: 455.1 km
Inclination: 53.2 °
Period: 93.5 minutes
Semi major axis: 6825 km
RCS: Unknown
Launch date: September 25, 2025
Source: United States (US)
Launch site: AIR FORCE EASTERN TEST RANGE (AFETR)
Your satellite tracking list
Your tracking list is empty




NASA's NSSDC Master Catalog

Two Line Element Set (TLE):
1 65742U 25216J   25319.24143535  .00047242  00000-0  11817-2 0  9996
2 65742  53.1618 145.0200 0001293 103.3296 256.7853 15.39671811  7938
Source of the keplerian elements: AFSPC